W6DSP Weather Reports


Display with metric or nautical units.
time (UTC)temp
F
wind
direction
speed
MPH
gust
MPH
rain 1hr
in
rain 24hr
in
rain mn
in
humidity
%
barometer
mb
20260906175452 76 26 3.0 12.0 0.00 0.00 0.00 62 1018.4
20260906173038 76 153 1.0 12.0 0.00 0.00 0.00 58 1018.9
20260906171815 75 38 1.0 9.0 0.00 0.00 0.00 61 1019.0
20260906170641 74 344 1.0 8.0 0.00 0.00 0.00 65 1019.1
20260906164204 74 44 3.0 12.0 0.00 0.00 0.00 69 1019.1
20260906163006 73 355 3.0 12.0 0.00 0.00 0.00 72 1019.1
20260906161826 73 86 3.0 12.0 0.00 0.00 0.00 74 1019.1
20260906155428 72 20 3.0 12.0 0.00 0.00 0.00 70 1019.2
20260906154226 71 55 3.0 14.0 0.00 0.00 0.00 72 1019.1
20260906153022 71 306 4.0 14.0 0.00 0.00 0.00 74 1018.9
20260906141735 68 25 3.0 11.0 0.00 0.00 0.00 80 1018.9
20260906134138 66 11 1.0 6.0 0.00 0.00 0.00 83 1018.9
20260906133003 65 61 0.0 6.0 0.00 0.00 0.00 83 1018.7
20260906131729 64 355 1.0 9.0 0.00 0.00 0.00 84 1018.7
20260906130546 64 42 3.0 9.0 0.00 0.08 0.00 85 1018.7
20260906122924 62 5 0.0 4.0 0.00 0.09 0.00 86 1018.6
20260906120542 61 52 0.0 3.0 0.00 0.09 0.00 88 1018.1
20260906115318 61 52 0.0 1.0 0.00 0.09 0.00 88 1017.9
20260906112912 61 52 0.0 1.0 0.00 0.09 0.00 88 1017.5
20260906104047 61 52 0.0 0.0 0.00 0.09 0.00 87 1017.0
20260906100420 63 52 0.0 0.0 0.00 0.09 0.00 86 1016.7
20260906095154 63 52 0.0 2.0 0.00 0.09 0.00 87 1016.4
20260906082736 67 45 0.0 3.0 0.00 0.13 0.00 87 1016.3
20260906072557 70 42 1.0 7.0 0.00 0.13 0.00 82 1016.1
20260906070108 70 28 0.0 3.0 0.00 0.13 0.00 82 1016.2
20260906064903 70 24 0.0 2.0 0.00 0.13 0.00 83 1016.0
20260906063643 70 19 0.0 1.0 0.00 0.13 0.00 83 1015.9
20260906062417 71 19 0.0 0.0 0.00 0.13 0.00 83 1016.0
20260906061215 71 19 0.0 3.0 0.00 0.13 0.00 82 1016.1
20260906053514 71 34 0.0 2.0 0.00 0.13 0.00 84 1016.0
20260906051143 71 33 0.0 1.0 0.00 0.13 0.00 85 1015.7
20260906042337 71 10 0.0 1.0 0.00 0.13 0.00 86 1015.2
20260906034802 72 111 0.0 3.0 0.00 0.13 0.13 87 1015.2
20260906024731 71 37 0.0 0.0 0.00 0.13 0.13 88 1014.8
20260906023533 72 37 0.0 2.0 0.00 0.13 0.13 88 1014.8
20260906014719 73 34 0.0 2.0 0.00 0.13 0.13 86 1014.4
20260906012246 74 63 1.0 9.0 0.00 0.13 0.13 85 1014.2
20260906011104 74 355 1.0 9.0 0.00 0.13 0.13 85 1014.1
20260906003354 75 69 1.0 11.0 0.00 0.13 0.13 85 1013.4
20260906001036 77 99 1.0 7.0 0.00 0.13 0.13 85 1013.3
20260905233408 78 26 0.0 7.0 0.00 0.13 0.13 83 1013.4
20260905232222 79 81 0.0 4.0 0.00 0.13 0.13 83 1012.9
20260905225747 79 58 3.0 12.0 0.00 0.13 0.13 81 1012.7
20260905222054 81 21 0.0 6.0 0.00 0.13 0.13 80 1012.2
20260905220901 82 30 3.0 11.0 0.00 0.13 0.13 77 1012.0
20260905213250 84 69 1.0 6.0 0.00 0.13 0.13 76 1011.6
20260905210841 85 38 1.0 0.0 0.00 0.13 0.13 79 1012.0
20260905205704 84 27 3.0 7.0 0.00 0.13 0.13 78 1012.0
20260905200808 83 15 1.0 9.0 0.00 0.13 0.13 80 1012.7
20260905194416 82 25 0.0 8.0 0.00 0.13 0.13 80 1012.7
20260905192006 84 349 0.0 1.0 0.00 0.13 0.13 80 1013.0
20260905181919 84 342 1.0 6.0 0.00 0.13 0.13 78 1013.3
20260905180648 83 316 1.0 11.0 0.00 0.13 0.13 77 1013.2